Time,TemperatureF,DewpointF,PressureIn,WindDirection,WindDirectionDegrees,WindSpeedMPH,WindSpeedGustMPH,Humidity,HourlyPrecipIn,Conditions,Clouds,dailyrainin,SolarRadiationWatts/m^2,SoftwareType,DateUTC
2013-08-22 00:04:00,77.0,75.2,29.98,SE,132,0.0,0.0,94,0.00,,,0.00,0.0,meteobridge,2013-08-22 05:04:00,
2013-08-22 00:09:00,77.2,75.6,29.98,SE,132,0.0,0.0,95,0.00,,,0.00,0.0,meteobridge,2013-08-22 05:09:00,
2013-08-22 00:14:00,77.2,75.4,29.98,SE,132,0.0,0.0,94,0.00,,,0.00,0.0,meteobridge,2013-08-22 05:14:00,
2013-08-22 00:19:00,77.0,75.4,29.98,SE,132,0.0,0.0,95,0.00,,,0.00,0.0,meteobridge,2013-08-22 05:19:00,
2013-08-22 00:24:00,77.0,75.4,29.98,SE,132,0.0,0.0,95,0.00,,,0.00,0.0,meteobridge,2013-08-22 05:24:00,
2013-08-22 00:30:00,77.0,75.4,29.97,SE,132,0.0,0.0,95,0.00,,,0.00,0.0,meteobridge,2013-08-22 05:30:00,
2013-08-22 00:35:00,76.8,75.2,29.97,SE,132,0.0,0.0,95,0.00,,,0.00,0.0,meteobridge,2013-08-22 05:35:00,
2013-08-22 00:40:00,76.8,75.2,29.97,SE,132,0.0,0.0,95,0.00,,,0.00,0.0,meteobridge,2013-08-22 05:40:00,
2013-08-22 00:45:00,76.6,75.0,29.97,SE,132,0.0,0.0,95,0.00,,,0.00,0.0,meteobridge,2013-08-22 05:45:00,
2013-08-22 00:51:00,76.6,75.0,29.97,SE,132,0.0,0.0,95,0.00,,,0.00,0.0,meteobridge,2013-08-22 05:51:00,
2013-08-22 00:56:00,76.5,74.8,29.97,SE,132,0.0,0.0,95,0.00,,,0.00,0.0,meteobridge,2013-08-22 05:56:00,
2013-08-22 01:01:00,76.3,74.7,29.97,SE,132,0.0,0.0,95,0.00,,,0.00,0.0,meteobridge,2013-08-22 06:01:00,
2013-08-22 01:06:00,76.3,74.7,29.97,SE,132,0.0,0.0,95,0.00,,,0.00,0.0,meteobridge,2013-08-22 06:06:00,
2013-08-22 01:11:00,76.3,74.7,29.97,SE,132,0.0,0.0,95,0.00,,,0.00,0.0,meteobridge,2013-08-22 06:11:00,
2013-08-22 01:16:00,76.3,74.7,29.97,SE,132,0.0,0.0,95,0.00,,,0.00,0.0,meteobridge,2013-08-22 06:16:00,
2013-08-22 01:21:00,76.3,74.7,29.97,SE,131,0.0,0.0,95,0.00,,,0.00,0.0,meteobridge,2013-08-22 06:21:00,
2013-08-22 01:26:00,76.3,74.7,29.97,SE,131,0.0,0.0,95,0.00,,,0.00,0.0,meteobridge,2013-08-22 06:26:00,
2013-08-22 01:31:00,76.1,74.5,29.96,SE,131,0.0,0.0,95,0.00,,,0.00,0.0,meteobridge,2013-08-22 06:31:00,
2013-08-22 01:36:00,75.9,74.3,29.96,SE,131,0.0,0.0,95,0.00,,,0.00,0.0,meteobridge,2013-08-22 06:36:00,
2013-08-22 01:41:00,75.7,74.1,29.96,SE,130,0.0,0.0,95,0.00,,,0.00,0.0,meteobridge,2013-08-22 06:41:00,
2013-08-22 01:46:00,75.7,74.1,29.96,SE,131,0.0,0.0,95,0.00,,,0.00,0.0,meteobridge,2013-08-22 06:46:00,
2013-08-22 01:52:00,75.6,73.9,29.96,SE,131,0.0,0.0,95,0.00,,,0.00,0.0,meteobridge,2013-08-22 06:52:00,
2013-08-22 01:57:00,75.6,73.9,29.96,SE,130,0.0,0.0,95,0.00,,,0.00,0.0,meteobridge,2013-08-22 06:57:00,
2013-08-22 02:02:00,75.6,73.9,29.96,SE,130,0.0,0.0,95,0.00,,,0.00,0.0,meteobridge,2013-08-22 07:02:00,
2013-08-22 02:07:00,75.4,73.8,29.96,SE,130,0.0,0.0,95,0.00,,,0.00,0.0,meteobridge,2013-08-22 07:07:00,
2013-08-22 02:12:00,75.4,73.8,29.96,SE,130,0.0,0.0,95,0.00,,,0.00,0.0,meteobridge,2013-08-22 07:12:00,
2013-08-22 02:17:00,75.4,74.1,29.96,SE,131,0.0,0.0,96,0.00,,,0.00,0.0,meteobridge,2013-08-22 07:17:00,
2013-08-22 02:22:00,75.4,74.1,29.96,SE,131,0.0,0.0,96,0.00,,,0.00,0.0,meteobridge,2013-08-22 07:22:00,
2013-08-22 02:27:00,75.4,74.1,29.96,SE,131,0.0,0.0,96,0.00,,,0.00,0.0,meteobridge,2013-08-22 07:27:00,
2013-08-22 02:32:00,75.4,74.1,29.96,SE,131,0.0,0.0,96,0.00,,,0.00,0.0,meteobridge,2013-08-22 07:32:00,
2013-08-22 02:37:00,75.4,74.1,29.96,SE,131,0.0,0.0,96,0.00,,,0.00,0.0,meteobridge,2013-08-22 07:37:00,
2013-08-22 02:42:00,75.2,73.9,29.96,SE,130,0.0,0.0,96,0.00,,,0.00,0.0,meteobridge,2013-08-22 07:42:00,
2013-08-22 02:47:00,75.2,73.9,29.96,SE,131,0.0,0.0,96,0.00,,,0.00,0.0,meteobridge,2013-08-22 07:47:00,
2013-08-22 02:52:00,75.2,73.9,29.96,SE,131,0.0,0.0,96,0.00,,,0.00,0.0,meteobridge,2013-08-22 07:52:00,
2013-08-22 02:58:00,75.0,73.8,29.96,SE,131,0.0,0.0,96,0.00,,,0.00,0.0,meteobridge,2013-08-22 07:58:00,
2013-08-22 03:03:00,75.0,73.8,29.96,SE,130,0.0,0.0,96,0.00,,,0.00,0.0,meteobridge,2013-08-22 08:03:00,
2013-08-22 03:08:00,75.0,73.8,29.96,SE,130,0.0,0.0,96,0.00,,,0.00,0.0,meteobridge,2013-08-22 08:08:00,
2013-08-22 03:13:00,75.0,73.8,29.96,SE,128,0.0,0.0,96,0.00,,,0.00,0.0,meteobridge,2013-08-22 08:13:00,
2013-08-22 03:18:00,75.0,73.8,29.96,SE,128,0.0,0.0,96,0.00,,,0.00,0.0,meteobridge,2013-08-22 08:18:00,
2013-08-22 03:23:00,75.0,73.8,29.96,SE,128,0.0,0.0,96,0.00,,,0.00,0.0,meteobridge,2013-08-22 08:23:00,
2013-08-22 03:29:00,74.8,73.6,29.96,SE,128,0.0,0.0,96,0.00,,,0.00,0.0,meteobridge,2013-08-22 08:29:00,
2013-08-22 03:34:00,74.8,73.6,29.96,SE,127,0.0,0.9,96,0.00,,,0.00,0.0,meteobridge,2013-08-22 08:34:00,
2013-08-22 03:39:00,74.8,73.6,29.96,ESE,119,0.0,0.9,96,0.00,,,0.00,0.0,meteobridge,2013-08-22 08:39:00,
2013-08-22 03:44:00,75.0,74.1,29.96,ESE,102,0.0,0.9,97,0.00,,,0.00,0.0,meteobridge,2013-08-22 08:44:00,
2013-08-22 03:49:00,75.0,74.1,29.96,ENE,77,0.0,0.9,97,0.00,,,0.00,0.0,meteobridge,2013-08-22 08:49:00,
2013-08-22 03:54:00,75.0,74.1,29.96,ENE,77,0.0,0.9,97,0.00,,,0.00,0.0,meteobridge,2013-08-22 08:54:00,
2013-08-22 04:00:00,75.0,74.1,29.95,ENE,77,0.0,0.0,97,0.00,,,0.00,0.0,meteobridge,2013-08-22 09:00:00,
2013-08-22 04:05:00,75.0,74.1,29.95,ENE,77,0.9,0.9,97,0.00,,,0.00,0.0,meteobridge,2013-08-22 09:05:00,
2013-08-22 04:10:00,75.0,74.1,29.95,ENE,77,0.0,0.9,97,0.00,,,0.00,0.0,meteobridge,2013-08-22 09:10:00,
2013-08-22 04:15:00,74.8,73.9,29.95,ENE,75,0.0,2.0,97,0.00,,,0.00,0.0,meteobridge,2013-08-22 09:15:00,
2013-08-22 04:20:00,75.0,74.1,29.95,ENE,75,0.0,0.0,97,0.00,,,0.00,0.0,meteobridge,2013-08-22 09:20:00,
2013-08-22 04:25:00,74.8,73.6,29.95,ENE,75,0.0,0.9,96,0.00,,,0.00,0.0,meteobridge,2013-08-22 09:25:00,
2013-08-22 04:31:00,74.8,73.6,29.96,ENE,74,0.0,0.0,96,0.00,,,0.00,0.0,meteobridge,2013-08-22 09:31:00,
2013-08-22 04:36:00,74.8,73.9,29.96,ENE,74,0.0,0.0,97,0.00,,,0.00,0.0,meteobridge,2013-08-22 09:36:00,
2013-08-22 04:41:00,74.8,73.6,29.96,ENE,74,0.0,0.0,96,0.00,,,0.00,0.0,meteobridge,2013-08-22 09:41:00,
2013-08-22 04:46:00,74.8,73.9,29.96,ENE,73,0.0,0.9,97,0.00,,,0.00,0.0,meteobridge,2013-08-22 09:46:00,
2013-08-22 04:52:00,74.8,73.9,29.96,ENE,74,0.0,0.9,97,0.00,,,0.00,0.0,meteobridge,2013-08-22 09:52:00,
2013-08-22 04:57:00,74.8,73.9,29.96,ENE,73,0.0,0.0,97,0.00,,,0.00,0.0,meteobridge,2013-08-22 09:57:00,
2013-08-22 05:02:00,74.8,73.9,29.96,ENE,71,0.0,0.9,97,0.00,,,0.00,0.0,meteobridge,2013-08-22 10:02:00,
2013-08-22 05:07:00,74.8,73.9,29.96,ENE,71,0.0,0.9,97,0.00,,,0.00,0.0,meteobridge,2013-08-22 10:07:00,
2013-08-22 05:12:00,74.8,73.9,29.96,ENE,71,0.0,0.0,97,0.00,,,0.00,0.0,meteobridge,2013-08-22 10:12:00,
2013-08-22 05:17:00,74.8,73.9,29.96,ENE,71,0.0,0.9,97,0.00,,,0.00,0.0,meteobridge,2013-08-22 10:17:00,
2013-08-22 05:22:00,74.8,73.9,29.96,ENE,69,0.0,0.9,97,0.00,,,0.00,0.0,meteobridge,2013-08-22 10:22:00,
2013-08-22 05:27:00,74.8,73.9,29.96,ENE,69,0.9,0.9,97,0.00,,,0.00,0.0,meteobridge,2013-08-22 10:27:00,
2013-08-22 05:32:00,74.8,73.9,29.96,ENE,58,0.0,0.9,97,0.00,,,0.00,0.0,meteobridge,2013-08-22 10:32:00,
2013-08-22 05:38:00,74.8,73.9,29.96,NE,44,0.0,0.0,97,0.00,,,0.00,0.0,meteobridge,2013-08-22 10:38:00,
2013-08-22 05:43:00,74.8,73.9,29.96,NE,46,0.0,0.9,97,0.00,,,0.00,0.0,meteobridge,2013-08-22 10:43:00,
2013-08-22 05:48:00,74.8,73.9,29.97,NE,46,0.0,0.9,97,0.00,,,0.00,0.0,meteobridge,2013-08-22 10:48:00,
2013-08-22 05:58:00,74.8,73.9,29.97,NE,54,0.0,0.0,97,0.00,,,0.00,0.0,meteobridge,2013-08-22 10:58:00,
2013-08-22 06:03:00,74.7,73.8,29.97,NE,54,0.0,0.0,97,0.00,,,0.00,0.0,meteobridge,2013-08-22 11:03:00,
2013-08-22 06:09:00,74.7,73.8,29.97,NE,54,0.0,0.0,97,0.00,,,0.00,0.0,meteobridge,2013-08-22 11:09:00,
2013-08-22 06:19:00,74.7,73.8,29.97,NE,54,0.0,0.0,97,0.00,,,0.00,0.0,meteobridge,2013-08-22 11:19:00,
2013-08-22 06:24:00,74.7,73.8,29.97,NE,54,0.0,0.0,97,0.00,,,0.00,0.0,meteobridge,2013-08-22 11:24:00,
2013-08-22 06:30:00,74.7,73.8,29.97,NE,54,0.0,0.0,97,0.00,,,0.00,0.0,meteobridge,2013-08-22 11:30:00,
2013-08-22 06:35:00,74.7,73.8,29.97,NE,54,0.0,0.0,97,0.00,,,0.00,0.0,meteobridge,2013-08-22 11:35:00,
2013-08-22 06:45:00,74.5,73.6,29.97,NNE,20,0.0,0.9,97,0.00,,,0.00,0.0,meteobridge,2013-08-22 11:45:00,
2013-08-22 06:55:00,74.7,73.8,29.97,NE,37,0.0,0.0,97,0.00,,,0.00,0.0,meteobridge,2013-08-22 11:55:00,
2013-08-22 07:11:00,74.7,73.8,29.98,NE,37,0.0,0.0,97,0.00,,,0.00,12.0,meteobridge,2013-08-22 12:11:00,
2013-08-22 07:16:00,74.8,73.9,29.98,NE,37,0.0,0.0,97,0.00,,,0.00,12.0,meteobridge,2013-08-22 12:16:00,
2013-08-22 07:27:00,75.0,74.1,29.98,ENE,63,0.0,0.9,97,0.00,,,0.00,26.0,meteobridge,2013-08-22 12:27:00,
2013-08-22 07:32:00,75.0,74.1,29.98,ENE,63,0.0,0.9,97,0.00,,,0.00,51.0,meteobridge,2013-08-22 12:32:00,
2013-08-22 07:37:00,75.4,74.5,29.98,ENE,63,0.0,0.9,97,0.00,,,0.00,49.0,meteobridge,2013-08-22 12:37:00,
2013-08-22 07:42:00,75.6,74.7,29.98,ENE,63,0.0,0.0,97,0.00,,,0.00,26.0,meteobridge,2013-08-22 12:42:00,
2013-08-22 07:47:00,75.6,74.7,29.98,ENE,63,0.0,0.0,97,0.00,,,0.00,40.0,meteobridge,2013-08-22 12:47:00,
2013-08-22 07:53:00,75.6,74.7,29.98,ENE,63,0.0,0.0,97,0.00,,,0.00,102.0,meteobridge,2013-08-22 12:53:00,
2013-08-22 07:58:00,75.9,75.4,29.98,ENE,63,0.0,0.0,98,0.00,,,0.00,113.0,meteobridge,2013-08-22 12:58:00,
2013-08-22 08:00:00,76.1,75.2,29.99,ENE,63,0.0,0.9,97,0.00,,,0.00,137.0,meteobridge,2013-08-22 13:00:00,
2013-08-22 08:05:00,76.5,75.9,29.99,ENE,63,0.0,0.0,98,0.00,,,0.00,160.0,meteobridge,2013-08-22 13:05:00,
2013-08-22 08:11:00,76.8,75.9,29.99,ENE,63,0.0,0.0,97,0.00,,,0.00,179.0,meteobridge,2013-08-22 13:11:00,
2013-08-22 08:16:00,77.4,76.5,30.00,ENE,63,0.0,0.9,97,0.00,,,0.00,204.0,meteobridge,2013-08-22 13:16:00,
2013-08-22 08:21:00,77.5,76.6,30.00,ENE,65,0.0,2.0,97,0.00,,,0.00,176.0,meteobridge,2013-08-22 13:21:00,
2013-08-22 08:26:00,77.9,77.0,30.00,ENE,65,0.0,2.0,97,0.00,,,0.00,146.0,meteobridge,2013-08-22 13:26:00,
2013-08-22 08:31:00,78.1,77.2,30.00,ENE,65,0.0,2.0,97,0.00,,,0.00,244.0,meteobridge,2013-08-22 13:31:00,
2013-08-22 08:36:00,78.4,77.5,30.00,ENE,65,0.0,2.0,97,0.00,,,0.00,269.0,meteobridge,2013-08-22 13:36:00,
2013-08-22 08:41:00,78.6,77.7,30.00,ENE,64,0.0,2.0,97,0.00,,,0.00,288.0,meteobridge,2013-08-22 13:41:00,
2013-08-22 08:46:00,79.3,78.4,30.00,ENE,59,0.9,0.9,97,0.00,,,0.00,322.0,meteobridge,2013-08-22 13:46:00,
2013-08-22 08:52:00,79.5,78.6,30.00,ENE,60,0.0,0.9,97,0.00,,,0.00,341.0,meteobridge,2013-08-22 13:52:00,
2013-08-22 08:57:00,79.9,78.6,30.00,East,86,0.0,2.0,96,0.00,,,0.00,359.0,meteobridge,2013-08-22 13:57:00,
2013-08-22 09:02:00,80.4,79.2,30.00,ENE,69,0.0,0.9,96,0.00,,,0.00,327.0,meteobridge,2013-08-22 14:02:00,
2013-08-22 09:07:00,80.8,79.2,30.00,ENE,68,0.0,2.0,95,0.00,,,0.00,346.0,meteobridge,2013-08-22 14:07:00,
2013-08-22 09:12:00,81.1,79.5,30.00,ENE,67,0.0,0.9,95,0.00,,,0.00,411.0,meteobridge,2013-08-22 14:12:00,
2013-08-22 09:17:00,81.5,79.5,30.00,NNE,29,0.0,0.0,94,0.00,,,0.00,436.0,meteobridge,2013-08-22 14:17:00,
2013-08-22 09:23:00,82.0,79.9,30.00,ENE,69,0.0,2.0,93,0.00,,,0.00,454.0,meteobridge,2013-08-22 14:23:00,
2013-08-22 09:28:00,82.9,80.8,30.00,NE,46,0.0,0.9,93,0.00,,,0.00,480.0,meteobridge,2013-08-22 14:28:00,
2013-08-22 09:33:00,83.5,80.6,30.00,NE,45,0.0,0.0,91,0.00,,,0.00,506.0,meteobridge,2013-08-22 14:33:00,
2013-08-22 09:38:00,83.8,80.6,30.00,East,82,0.0,0.0,90,0.00,,,0.00,531.0,meteobridge,2013-08-22 14:38:00,
2013-08-22 09:43:00,84.2,79.9,30.00,ENE,66,0.0,0.0,87,0.00,,,0.00,557.0,meteobridge,2013-08-22 14:43:00,
2013-08-22 09:48:00,84.7,80.1,30.01,East,99,0.0,0.0,86,0.00,,,0.00,621.0,meteobridge,2013-08-22 14:48:00,
2013-08-22 09:54:00,85.5,80.4,30.01,ENE,65,0.0,0.9,85,0.00,,,0.00,701.0,meteobridge,2013-08-22 14:54:00,
2013-08-22 09:59:00,85.3,79.9,30.01,NNE,32,0.0,0.0,84,0.00,,,0.00,301.0,meteobridge,2013-08-22 14:59:00,
2013-08-22 10:04:00,85.8,80.4,30.01,ENE,59,0.0,0.0,84,0.00,,,0.00,786.0,meteobridge,2013-08-22 15:04:00,
2013-08-22 10:09:00,85.3,79.5,30.01,NNW,348,4.0,4.0,83,0.00,,,0.00,216.0,meteobridge,2013-08-22 15:09:00,
2013-08-22 10:14:00,84.9,79.5,30.01,East,101,0.0,0.0,84,0.00,,,0.00,311.0,meteobridge,2013-08-22 15:14:00,
2013-08-22 10:19:00,84.7,79.3,30.01,East,87,0.0,0.0,84,0.00,,,0.00,204.0,meteobridge,2013-08-22 15:19:00,
2013-08-22 10:25:00,84.9,79.5,30.01,East,101,0.0,0.0,84,0.00,,,0.00,207.0,meteobridge,2013-08-22 15:25:00,
2013-08-22 10:30:00,86.5,79.7,30.00,East,94,0.0,0.0,80,0.00,,,0.00,803.0,meteobridge,2013-08-22 15:30:00,
2013-08-22 10:35:00,86.7,79.3,30.00,East,82,0.0,0.0,79,0.00,,,0.00,223.0,meteobridge,2013-08-22 15:35:00,
2013-08-22 10:40:00,85.6,78.8,30.00,ENE,76,0.0,0.0,80,0.00,,,0.00,244.0,meteobridge,2013-08-22 15:40:00,
2013-08-22 10:45:00,86.7,78.6,30.00,NNE,23,0.0,0.9,77,0.00,,,0.00,932.0,meteobridge,2013-08-22 15:45:00,
2013-08-22 10:50:00,87.6,79.2,30.00,East,80,0.0,0.9,76,0.00,,,0.00,457.0,meteobridge,2013-08-22 15:50:00,
2013-08-22 10:55:00,88.3,79.9,30.00,ENE,74,0.9,0.9,76,0.00,,,0.00,932.0,meteobridge,2013-08-22 15:55:00,
2013-08-22 11:01:00,87.8,78.4,30.00,ENE,70,0.0,0.0,74,0.00,,,0.00,253.0,meteobridge,2013-08-22 16:01:00,
2013-08-22 11:06:00,88.0,79.5,30.00,NNE,24,0.0,2.9,76,0.00,,,0.00,939.0,meteobridge,2013-08-22 16:06:00,
2013-08-22 11:11:00,88.7,79.0,30.00,NNE,22,0.0,2.9,73,0.00,,,0.00,821.0,meteobridge,2013-08-22 16:11:00,
2013-08-22 11:16:00,88.3,77.7,30.00,SSE,157,2.0,2.9,71,0.00,,,0.00,216.0,meteobridge,2013-08-22 16:16:00,
2013-08-22 11:21:00,88.0,78.3,30.00,NE,55,0.0,0.9,73,0.00,,,0.00,308.0,meteobridge,2013-08-22 16:21:00,
2013-08-22 11:26:00,88.0,78.3,30.00,East,92,0.0,2.0,73,0.00,,,0.00,526.0,meteobridge,2013-08-22 16:26:00,
2013-08-22 11:31:00,87.4,77.7,30.00,ENE,68,0.0,0.9,73,0.00,,,0.00,267.0,meteobridge,2013-08-22 16:31:00,
2013-08-22 11:36:00,88.2,77.9,30.00,East,86,0.0,0.9,72,0.00,,,0.00,635.0,meteobridge,2013-08-22 16:36:00,
2013-08-22 11:42:00,88.2,78.4,30.00,East,90,0.0,0.0,73,0.00,,,0.00,371.0,meteobridge,2013-08-22 16:42:00,
2013-08-22 11:47:00,88.2,77.9,30.00,ESE,109,0.0,0.0,72,0.00,,,0.00,367.0,meteobridge,2013-08-22 16:47:00,
2013-08-22 11:52:00,88.3,77.7,30.00,East,100,0.0,0.0,71,0.00,,,0.00,394.0,meteobridge,2013-08-22 16:52:00,
2013-08-22 11:57:00,88.2,77.5,30.00,East,98,0.0,0.0,71,0.00,,,0.00,415.0,meteobridge,2013-08-22 16:57:00,
2013-08-22 12:02:00,88.7,79.0,29.99,East,88,0.0,0.0,73,0.00,,,0.00,522.0,meteobridge,2013-08-22 17:02:00,
2013-08-22 12:07:00,88.9,77.9,29.99,ENE,62,0.0,0.0,70,0.00,,,0.00,396.0,meteobridge,2013-08-22 17:07:00,
2013-08-22 12:12:00,88.7,78.4,29.99,NNE,30,0.0,0.0,72,0.00,,,0.00,397.0,meteobridge,2013-08-22 17:12:00,
2013-08-22 12:17:00,89.1,78.4,29.99,ESE,115,2.9,4.0,71,0.00,,,0.00,454.0,meteobridge,2013-08-22 17:17:00,
2013-08-22 12:22:00,89.4,78.8,29.99,ESE,111,0.0,0.9,71,0.00,,,0.00,555.0,meteobridge,2013-08-22 17:22:00,
2013-08-22 12:27:00,89.8,78.6,29.99,ESE,117,2.9,2.9,70,0.00,,,0.00,642.0,meteobridge,2013-08-22 17:27:00,
2013-08-22 12:33:00,90.3,78.3,29.98,ENE,71,0.0,0.0,68,0.00,,,0.00,712.0,meteobridge,2013-08-22 17:33:00,
2013-08-22 12:38:00,90.5,77.2,29.98,ENE,73,0.0,0.0,65,0.00,,,0.00,795.0,meteobridge,2013-08-22 17:38:00,
2013-08-22 12:43:00,91.0,78.6,29.98,NE,47,0.0,2.0,67,0.00,,,0.00,860.0,meteobridge,2013-08-22 17:43:00,
2013-08-22 12:48:00,91.0,78.1,29.98,ENE,62,0.0,2.0,66,0.00,,,0.00,861.0,meteobridge,2013-08-22 17:48:00,
2013-08-22 12:53:00,91.0,78.6,29.98,ENE,57,0.0,0.0,67,0.00,,,0.00,336.0,meteobridge,2013-08-22 17:53:00,
2013-08-22 12:58:00,89.8,77.7,29.98,ENE,78,0.0,0.0,68,0.00,,,0.00,308.0,meteobridge,2013-08-22 17:58:00,
2013-08-22 13:03:00,89.2,77.4,29.97,East,82,0.0,0.0,68,0.00,,,0.00,309.0,meteobridge,2013-08-22 18:03:00,
2013-08-22 13:09:00,89.2,77.7,29.97,NNE,31,0.0,0.0,69,0.00,,,0.00,432.0,meteobridge,2013-08-22 18:09:00,
2013-08-22 13:14:00,89.8,77.4,29.97,ESE,103,0.0,0.9,67,0.00,,,0.00,896.0,meteobridge,2013-08-22 18:14:00,
2013-08-22 13:19:00,91.0,78.1,29.96,NE,55,0.9,0.9,66,0.00,,,0.00,888.0,meteobridge,2013-08-22 18:19:00,
2013-08-22 13:24:00,91.2,78.3,29.96,NE,44,0.0,0.9,66,0.00,,,0.00,853.0,meteobridge,2013-08-22 18:24:00,
2013-08-22 13:29:00,90.7,76.8,29.96,SSE,161,0.0,0.9,64,0.00,,,0.00,814.0,meteobridge,2013-08-22 18:29:00,
2013-08-22 13:34:00,91.2,77.7,29.96,ESE,118,0.9,2.9,65,0.00,,,0.00,610.0,meteobridge,2013-08-22 18:34:00,
2013-08-22 13:39:00,91.4,77.5,29.96,SE,126,0.0,2.9,64,0.00,,,0.00,689.0,meteobridge,2013-08-22 18:39:00,
2013-08-22 13:44:00,90.9,77.5,29.95,SSE,150,2.9,6.0,65,0.00,,,0.00,497.0,meteobridge,2013-08-22 18:44:00,
2013-08-22 13:49:00,90.0,78.8,29.95,SSE,161,6.0,8.1,70,0.00,,,0.00,250.0,meteobridge,2013-08-22 18:49:00,
2013-08-22 13:54:00,89.1,78.4,29.95,SSE,167,4.0,8.9,71,0.00,,,0.00,262.0,meteobridge,2013-08-22 18:54:00,
2013-08-22 13:59:00,88.9,78.6,29.96,SSE,149,10.1,10.1,72,0.00,,,0.00,207.0,meteobridge,2013-08-22 18:59:00,
2013-08-22 14:04:00,88.3,78.6,29.96,SSE,147,4.0,8.9,73,0.00,,,0.00,624.0,meteobridge,2013-08-22 19:04:00,
2013-08-22 14:09:00,89.4,79.2,29.96,SE,139,4.0,8.9,72,0.00,,,0.00,831.0,meteobridge,2013-08-22 19:09:00,
2013-08-22 14:14:00,90.9,80.6,29.95,SSE,148,6.9,8.1,72,0.00,,,0.00,1002.0,meteobridge,2013-08-22 19:14:00,
2013-08-22 14:19:00,90.7,79.2,29.95,SSE,160,6.0,11.0,69,0.00,,,0.00,432.0,meteobridge,2013-08-22 19:19:00,
2013-08-22 14:24:00,90.1,79.0,29.95,South,177,4.9,12.1,70,0.00,,,0.00,889.0,meteobridge,2013-08-22 19:24:00,
2013-08-22 14:29:00,91.0,79.9,29.94,SE,133,8.1,8.9,70,0.00,,,0.00,1032.0,meteobridge,2013-08-22 19:29:00,
2013-08-22 14:34:00,91.6,79.5,29.94,East,96,0.0,4.9,68,0.00,,,0.00,1011.0,meteobridge,2013-08-22 19:34:00,
2013-08-22 14:39:00,92.5,79.5,29.94,SE,140,0.9,8.1,66,0.00,,,0.00,991.0,meteobridge,2013-08-22 19:39:00,
2013-08-22 14:44:00,91.8,80.1,29.94,SSE,160,8.9,11.0,69,0.00,,,0.00,970.0,meteobridge,2013-08-22 19:44:00,
2013-08-22 14:49:00,91.2,78.8,29.94,SE,141,6.0,8.1,67,0.00,,,0.00,863.0,meteobridge,2013-08-22 19:49:00,
2013-08-22 14:54:00,91.0,79.9,29.94,SSE,158,6.0,10.1,70,0.00,,,0.00,877.0,meteobridge,2013-08-22 19:54:00,
2013-08-22 14:59:00,91.2,79.2,29.94,South,185,8.1,10.1,68,0.00,,,0.00,907.0,meteobridge,2013-08-22 19:59:00,
2013-08-22 15:05:00,91.4,78.4,29.94,South,184,2.0,8.1,66,0.00,,,0.00,891.0,meteobridge,2013-08-22 20:05:00,
2013-08-22 15:10:00,91.6,79.5,29.94,South,178,4.9,11.0,68,0.00,,,0.00,904.0,meteobridge,2013-08-22 20:10:00,
2013-08-22 15:15:00,91.8,78.3,29.93,SSE,159,2.9,4.0,65,0.00,,,0.00,904.0,meteobridge,2013-08-22 20:15:00,
2013-08-22 15:20:00,90.3,79.2,29.93,SSE,159,0.9,4.0,70,0.00,,,0.00,172.0,meteobridge,2013-08-22 20:20:00,
2013-08-22 15:25:00,89.2,78.6,29.93,South,173,8.1,10.1,71,0.00,,,0.00,141.0,meteobridge,2013-08-22 20:25:00,
2013-08-22 15:30:00,88.7,79.0,29.93,South,178,2.9,6.9,73,0.00,,,0.00,181.0,meteobridge,2013-08-22 20:30:00,
2013-08-22 15:35:00,88.5,78.8,29.93,SSE,161,8.1,8.9,73,0.00,,,0.00,225.0,meteobridge,2013-08-22 20:35:00,
2013-08-22 15:40:00,88.3,78.6,29.93,SSE,164,6.9,11.0,73,0.00,,,0.00,246.0,meteobridge,2013-08-22 20:40:00,
2013-08-22 15:45:00,88.0,78.3,29.92,SE,141,6.9,11.0,73,0.00,,,0.00,232.0,meteobridge,2013-08-22 20:45:00,
2013-08-22 15:50:00,85.5,77.7,29.92,SE,139,0.9,6.9,78,0.00,,,0.00,236.0,meteobridge,2013-08-22 20:50:00,
2013-08-22 15:55:00,84.4,78.3,29.92,SSE,148,8.9,8.9,82,0.00,,,0.00,385.0,meteobridge,2013-08-22 20:55:00,
2013-08-22 16:00:00,84.6,79.2,29.92,SSE,167,8.1,10.1,84,0.00,,,0.00,276.0,meteobridge,2013-08-22 21:00:00,
2013-08-22 16:05:00,85.5,80.1,29.92,South,178,8.1,10.1,84,0.00,,,0.00,376.0,meteobridge,2013-08-22 21:05:00,
2013-08-22 16:10:00,86.0,79.9,29.92,SSE,163,6.0,8.1,82,0.00,,,0.00,374.0,meteobridge,2013-08-22 21:10:00,
2013-08-22 16:15:00,86.7,80.2,29.92,South,171,2.9,8.9,81,0.00,,,0.00,378.0,meteobridge,2013-08-22 21:15:00,
2013-08-22 16:20:00,87.1,79.7,29.92,SSE,161,8.1,8.9,79,0.00,,,0.00,348.0,meteobridge,2013-08-22 21:20:00,
2013-08-22 16:26:00,87.4,79.3,29.92,South,175,4.0,10.1,77,0.00,,,0.00,315.0,meteobridge,2013-08-22 21:26:00,
2013-08-22 16:31:00,87.4,80.1,29.92,South,180,2.9,6.0,79,0.00,,,0.00,332.0,meteobridge,2013-08-22 21:31:00,
2013-08-22 16:36:00,87.8,80.1,29.92,South,171,4.0,8.1,78,0.00,,,0.00,457.0,meteobridge,2013-08-22 21:36:00,
2013-08-22 16:41:00,88.3,79.9,29.92,South,171,6.0,10.1,76,0.00,,,0.00,454.0,meteobridge,2013-08-22 21:41:00,
2013-08-22 16:46:00,88.2,79.2,29.91,South,176,6.0,8.1,75,0.00,,,0.00,397.0,meteobridge,2013-08-22 21:46:00,
2013-08-22 16:51:00,88.5,80.1,29.91,South,172,8.9,10.1,76,0.00,,,0.00,534.0,meteobridge,2013-08-22 21:51:00,
2013-08-22 16:56:00,88.5,79.2,29.91,South,169,6.0,11.0,74,0.00,,,0.00,571.0,meteobridge,2013-08-22 21:56:00,
2013-08-22 17:01:00,88.5,79.2,29.91,SSE,166,4.9,8.1,74,0.00,,,0.00,315.0,meteobridge,2013-08-22 22:01:00,
2013-08-22 17:06:00,88.2,77.9,29.91,SSE,163,6.9,8.1,72,0.00,,,0.00,295.0,meteobridge,2013-08-22 22:06:00,
2013-08-22 17:11:00,88.2,78.4,29.91,SSE,157,2.0,8.1,73,0.00,,,0.00,276.0,meteobridge,2013-08-22 22:11:00,
2013-08-22 17:16:00,87.8,77.7,29.91,SSE,157,6.0,11.0,72,0.00,,,0.00,264.0,meteobridge,2013-08-22 22:16:00,
2013-08-22 17:21:00,87.6,77.9,29.91,SSE,152,10.1,10.1,73,0.00,,,0.00,262.0,meteobridge,2013-08-22 22:21:00,
2013-08-22 17:26:00,87.8,78.1,29.91,SE,124,0.0,4.9,73,0.00,,,0.00,325.0,meteobridge,2013-08-22 22:26:00,
2013-08-22 17:31:00,88.2,78.4,29.91,SE,146,0.9,6.9,73,0.00,,,0.00,392.0,meteobridge,2013-08-22 22:31:00,
2013-08-22 17:36:00,88.9,78.3,29.91,SE,142,4.9,4.9,71,0.00,,,0.00,329.0,meteobridge,2013-08-22 22:36:00,
2013-08-22 17:41:00,89.1,78.8,29.91,East,101,2.9,10.1,72,0.00,,,0.00,385.0,meteobridge,2013-08-22 22:41:00,
2013-08-22 17:46:00,88.9,78.3,29.90,ESE,115,2.9,6.9,71,0.00,,,0.00,394.0,meteobridge,2013-08-22 22:46:00,
2013-08-22 17:51:00,88.9,78.3,29.90,SSE,163,11.0,13.0,71,0.00,,,0.00,464.0,meteobridge,2013-08-22 22:51:00,
2013-08-22 17:56:00,89.1,78.4,29.90,SSE,153,10.1,13.0,71,0.00,,,0.00,406.0,meteobridge,2013-08-22 22:56:00,
2013-08-22 18:01:00,88.9,77.9,29.89,SE,139,0.0,4.9,70,0.00,,,0.00,308.0,meteobridge,2013-08-22 23:01:00,
2013-08-22 18:06:00,88.7,78.1,29.89,SSE,148,6.9,11.0,71,0.00,,,0.00,165.0,meteobridge,2013-08-22 23:06:00,
2013-08-22 18:11:00,88.5,77.9,29.89,SE,146,6.0,8.1,71,0.00,,,0.00,146.0,meteobridge,2013-08-22 23:11:00,
2013-08-22 18:17:00,88.0,77.9,29.89,SE,133,0.0,6.9,72,0.00,,,0.00,109.0,meteobridge,2013-08-22 23:17:00,
2013-08-22 18:21:00,87.4,77.4,29.89,SSE,164,6.0,6.0,72,0.00,,,0.00,98.0,meteobridge,2013-08-22 23:21:00,
2013-08-22 18:26:00,87.3,77.9,29.89,SE,131,0.9,6.0,74,0.00,,,0.00,163.0,meteobridge,2013-08-22 23:26:00,
2013-08-22 18:31:00,87.1,77.7,29.88,SSE,150,6.9,6.9,74,0.00,,,0.00,79.0,meteobridge,2013-08-22 23:31:00,
2013-08-22 18:37:00,86.7,77.4,29.88,SE,125,2.9,6.0,74,0.00,,,0.00,63.0,meteobridge,2013-08-22 23:37:00,
2013-08-22 18:41:00,86.4,76.6,29.88,SSE,149,2.9,6.0,73,0.00,,,0.00,63.0,meteobridge,2013-08-22 23:41:00,
2013-08-22 18:47:00,86.2,77.0,29.88,SE,130,0.9,6.9,74,0.00,,,0.00,163.0,meteobridge,2013-08-22 23:47:00,
2013-08-22 18:52:00,86.4,77.5,29.88,SE,128,0.0,2.9,75,0.00,,,0.00,69.0,meteobridge,2013-08-22 23:52:00,
2013-08-22 18:57:00,86.2,77.0,29.88,SE,145,4.9,4.9,74,0.00,,,0.00,67.0,meteobridge,2013-08-22 23:57:00,
2013-08-22 19:02:00,85.8,77.0,29.89,SE,133,0.0,6.9,75,0.00,,,0.00,46.0,meteobridge,2013-08-23 00:02:00,
2013-08-22 19:07:00,85.6,75.9,29.89,ESE,121,0.0,8.9,73,0.00,,,0.00,44.0,meteobridge,2013-08-23 00:07:00,
2013-08-22 19:12:00,85.6,76.5,29.89,SE,138,6.9,6.9,74,0.00,,,0.00,39.0,meteobridge,2013-08-23 00:12:00,
2013-08-22 19:17:00,85.6,76.8,29.89,SE,145,2.0,6.9,75,0.00,,,0.00,35.0,meteobridge,2013-08-23 00:17:00,
2013-08-22 19:22:00,85.6,76.8,29.89,SE,146,6.0,8.9,75,0.00,,,0.00,32.0,meteobridge,2013-08-23 00:22:00,
2013-08-22 19:27:00,85.5,77.0,29.89,SSE,148,4.0,6.9,76,0.00,,,0.00,30.0,meteobridge,2013-08-23 00:27:00,
2013-08-22 19:32:00,85.1,77.0,29.89,SE,144,6.0,6.9,77,0.00,,,0.00,25.0,meteobridge,2013-08-23 00:32:00,
2013-08-22 19:37:00,84.7,77.2,29.89,SE,146,0.0,4.9,78,0.00,,,0.00,21.0,meteobridge,2013-08-23 00:37:00,
2013-08-22 19:42:00,84.4,77.2,29.89,SSE,159,0.0,4.0,79,0.00,,,0.00,18.0,meteobridge,2013-08-23 00:42:00,
2013-08-22 19:48:00,83.7,76.8,29.89,SE,144,6.0,6.0,80,0.00,,,0.00,12.0,meteobridge,2013-08-23 00:48:00,
2013-08-22 19:53:00,83.3,76.8,29.89,SE,146,0.0,4.0,81,0.00,,,0.00,7.0,meteobridge,2013-08-23 00:53:00,
2013-08-22 19:58:00,82.8,76.6,29.89,SE,143,0.0,4.9,82,0.00,,,0.00,0.0,meteobridge,2013-08-23 00:58:00,
2013-08-22 20:03:00,82.4,76.6,29.89,SSE,150,0.0,0.0,83,0.00,,,0.00,0.0,meteobridge,2013-08-23 01:03:00,
2013-08-22 20:08:00,82.0,76.3,29.89,SSE,151,0.0,0.0,83,0.00,,,0.00,0.0,meteobridge,2013-08-23 01:08:00,
2013-08-22 20:13:00,81.9,76.5,29.89,SSE,156,2.9,4.0,84,0.00,,,0.00,0.0,meteobridge,2013-08-23 01:13:00,
2013-08-22 20:18:00,81.7,76.6,29.90,SSE,159,0.0,0.0,85,0.00,,,0.00,0.0,meteobridge,2013-08-23 01:18:00,
2013-08-22 20:23:00,81.3,76.6,29.90,SE,146,0.0,2.0,86,0.00,,,0.00,0.0,meteobridge,2013-08-23 01:23:00,
2013-08-22 20:28:00,81.1,76.5,29.90,SE,138,4.0,4.0,86,0.00,,,0.00,0.0,meteobridge,2013-08-23 01:28:00,
2013-08-22 20:33:00,81.1,76.8,29.91,SE,140,0.0,0.0,87,0.00,,,0.00,0.0,meteobridge,2013-08-23 01:33:00,
2013-08-22 20:39:00,81.0,76.6,29.91,SE,140,0.0,0.0,87,0.00,,,0.00,0.0,meteobridge,2013-08-23 01:39:00,
2013-08-22 20:44:00,80.8,76.8,29.91,SE,133,0.0,0.0,88,0.00,,,0.00,0.0,meteobridge,2013-08-23 01:44:00,
2013-08-22 20:49:00,80.8,76.8,29.91,SE,133,0.0,0.0,88,0.00,,,0.00,0.0,meteobridge,2013-08-23 01:49:00,
2013-08-22 20:54:00,80.4,76.5,29.91,SE,133,0.0,0.0,88,0.00,,,0.00,0.0,meteobridge,2013-08-23 01:54:00,
2013-08-22 21:00:00,80.2,76.3,29.91,SE,134,0.0,0.0,88,0.00,,,0.00,0.0,meteobridge,2013-08-23 02:00:00,
2013-08-22 21:05:00,80.1,76.5,29.91,SE,134,0.0,0.0,89,0.00,,,0.00,0.0,meteobridge,2013-08-23 02:05:00,
2013-08-22 21:10:00,79.9,76.6,29.91,SE,134,0.0,0.0,90,0.00,,,0.00,0.0,meteobridge,2013-08-23 02:10:00,
2013-08-22 21:15:00,79.9,76.6,29.92,SE,134,0.0,0.0,90,0.00,,,0.00,0.0,meteobridge,2013-08-23 02:15:00,
2013-08-22 21:20:00,79.9,76.6,29.92,SE,134,0.0,0.0,90,0.00,,,0.00,0.0,meteobridge,2013-08-23 02:20:00,
2013-08-22 21:25:00,79.5,76.3,29.92,SE,134,0.0,0.0,90,0.00,,,0.00,0.0,meteobridge,2013-08-23 02:25:00,
2013-08-22 21:31:00,79.5,76.3,29.92,SE,134,0.0,0.0,90,0.00,,,0.00,0.0,meteobridge,2013-08-23 02:31:00,
2013-08-22 21:36:00,79.3,76.1,29.92,SE,134,0.0,0.0,90,0.00,,,0.00,0.0,meteobridge,2013-08-23 02:36:00,
2013-08-22 21:41:00,79.3,76.1,29.92,SE,134,0.0,0.0,90,0.00,,,0.00,0.0,meteobridge,2013-08-23 02:41:00,
2013-08-22 21:46:00,79.3,76.1,29.92,SE,134,0.0,0.0,90,0.00,,,0.00,0.0,meteobridge,2013-08-23 02:46:00,
2013-08-22 21:51:00,79.3,76.5,29.92,SE,134,0.0,0.0,91,0.00,,,0.00,0.0,meteobridge,2013-08-23 02:51:00,
2013-08-22 21:56:00,79.2,76.3,29.92,SE,134,0.0,0.0,91,0.00,,,0.00,0.0,meteobridge,2013-08-23 02:56:00,
2013-08-22 22:01:00,79.2,76.3,29.92,SE,134,0.0,0.0,91,0.00,,,0.00,0.0,meteobridge,2013-08-23 03:01:00,
2013-08-22 22:06:00,79.2,76.3,29.92,SE,134,0.0,0.0,91,0.00,,,0.00,0.0,meteobridge,2013-08-23 03:06:00,
2013-08-22 22:11:00,79.2,76.3,29.92,SE,134,0.0,0.0,91,0.00,,,0.00,0.0,meteobridge,2013-08-23 03:11:00,
2013-08-22 22:16:00,79.0,76.1,29.92,SE,134,0.0,0.0,91,0.00,,,0.00,0.0,meteobridge,2013-08-23 03:16:00,
2013-08-22 22:22:00,79.0,76.1,29.92,SE,134,0.0,0.0,91,0.00,,,0.00,0.0,meteobridge,2013-08-23 03:22:00,
2013-08-22 22:27:00,79.0,76.1,29.92,SE,134,0.0,0.0,91,0.00,,,0.00,0.0,meteobridge,2013-08-23 03:27:00,
2013-08-22 22:32:00,78.8,75.9,29.93,SE,134,0.0,0.0,91,0.00,,,0.00,0.0,meteobridge,2013-08-23 03:32:00,
2013-08-22 22:37:00,78.6,75.7,29.93,SE,134,0.0,0.0,91,0.00,,,0.00,0.0,meteobridge,2013-08-23 03:37:00,
2013-08-22 22:42:00,78.6,75.7,29.93,SE,134,0.0,0.0,91,0.00,,,0.00,0.0,meteobridge,2013-08-23 03:42:00,
2013-08-22 22:48:00,78.4,75.6,29.93,SE,134,0.0,0.0,91,0.00,,,0.00,0.0,meteobridge,2013-08-23 03:48:00,
2013-08-22 22:53:00,78.3,75.4,29.93,SE,134,0.0,0.0,91,0.00,,,0.00,0.0,meteobridge,2013-08-23 03:53:00,
2013-08-22 22:58:00,78.3,75.7,29.93,SE,134,0.0,0.0,92,0.00,,,0.00,0.0,meteobridge,2013-08-23 03:58:00,
2013-08-22 23:01:00,78.1,75.6,29.94,SE,134,0.0,0.0,92,0.00,,,0.00,0.0,meteobridge,2013-08-23 04:01:00,
2013-08-22 23:02:00,78.3,75.7,29.94,SE,134,0.0,0.0,92,0.00,,,0.00,0.0,meteobridge,2013-08-23 04:02:00,
2013-08-22 23:07:00,78.3,75.7,29.94,SE,134,0.0,0.0,92,0.00,,,0.00,0.0,meteobridge,2013-08-23 04:07:00,
2013-08-22 23:12:00,78.3,76.1,29.94,SE,134,0.0,0.0,93,0.00,,,0.00,0.0,meteobridge,2013-08-23 04:12:00,
2013-08-22 23:18:00,78.3,75.7,29.94,SE,134,0.0,0.0,92,0.00,,,0.00,0.0,meteobridge,2013-08-23 04:18:00,
2013-08-22 23:23:00,78.1,75.6,29.94,SE,134,0.0,0.0,92,0.00,,,0.00,0.0,meteobridge,2013-08-23 04:23:00,
2013-08-22 23:28:00,77.9,75.7,29.94,SE,134,0.0,0.0,93,0.00,,,0.00,0.0,meteobridge,2013-08-23 04:28:00,
2013-08-22 23:33:00,77.9,75.7,29.94,SE,134,0.0,0.0,93,0.00,,,0.00,0.0,meteobridge,2013-08-23 04:33:00,
2013-08-22 23:38:00,77.9,75.7,29.94,SE,134,0.0,0.0,93,0.00,,,0.00,0.0,meteobridge,2013-08-23 04:38:00,
2013-08-22 23:43:00,77.7,75.6,29.94,SE,134,0.0,0.0,93,0.00,,,0.00,0.0,meteobridge,2013-08-23 04:43:00,
2013-08-22 23:48:00,77.7,75.6,29.94,SE,134,0.0,0.0,93,0.00,,,0.00,0.0,meteobridge,2013-08-23 04:48:00,
2013-08-22 23:53:00,77.7,75.6,29.94,SE,134,0.0,0.0,93,0.00,,,0.00,0.0,meteobridge,2013-08-23 04:53:00,
2013-08-22 23:59:00,77.5,75.4,29.94,SE,134,0.0,0.0,93,0.00,,,0.00,0.0,meteobridge,2013-08-23 04:59:00,